Date String (YYYY-MM-DD hh:mm:ss) UTC,Instrument flags,Ambient pressure (hPa),Sample flow (lpm),Bypass flow (lpm),Sample temperature (°C),Ambient temperature (°C),ASC tube jacket temperature (°C),LED temperature (°C),Box temperature (°C),Sample RH (%),Span deviation,Mass concentration (μg/m³),Mass concentration (μg/m³),Mass concentration (μg/m³)
DateTimeUTC,F1_M11,P_M11,Q1_M11,Q2_M11,T1_M11,T2_M11,T3_M11,T4_M11,T5_M11,U1_M11,ZSPAN_M11,X0_M11,X2_M11,X1_M11
2021-11-15 23:00:00,,0826.5,5.00,0.00,30.1,29.4,00.0,39.1,31.9,08.5,0000.0,0002.60,0000.54,0000.33
2021-11-15 23:01:00,,0826.5,5.00,0.00,30.1,29.4,00.0,39.1,31.9,08.2,0000.0,0002.64,0000.54,0000.32
2021-11-15 23:02:00,,0826.5,5.00,0.00,30.2,29.4,00.0,39.1,31.9,08.3,0000.0,0002.69,0000.55,0000.32
2021-11-15 23:03:00,,0826.6,5.00,0.00,30.2,29.4,00.0,39.1,31.9,08.4,0000.0,0002.97,0000.54,0000.32
2021-11-15 23:04:00,,0826.5,5.02,0.00,30.2,29.4,00.0,39.1,31.9,08.5,0000.0,0003.30,0000.56,0000.32
2021-11-15 23:05:00,,0826.5,4.99,0.00,30.2,29.5,00.0,39.1,31.9,08.5,0000.0,0002.86,0000.55,0000.31
2021-11-15 23:06:00,,0826.6,5.00,0.00,30.2,28.8,00.0,39.1,31.8,08.4,0000.0,0002.33,0000.52,0000.31
2021-11-15 23:07:00,,0826.5,5.01,0.00,30.1,26.9,00.0,39.1,31.5,08.3,0000.0,0002.28,0000.50,0000.31
2021-11-15 23:08:00,,0826.5,4.99,0.00,30.0,26.6,00.0,39.1,31.4,08.3,0000.0,0002.21,0000.46,0000.30
2021-11-15 23:09:00,,0826.5,4.99,0.00,30.0,27.0,00.0,39.0,31.4,08.4,0000.0,0002.56,0000.44,0000.30
2021-11-15 23:10:00,,0826.5,4.99,0.00,29.9,27.4,00.0,39.0,31.5,08.6,0000.0,0002.16,0000.43,0000.29
2021-11-15 23:11:00,,0826.5,5.00,0.00,29.9,27.7,00.0,39.0,31.5,08.4,0000.0,0002.23,0000.46,0000.29
2021-11-15 23:12:00,,0826.6,5.02,0.00,29.9,28.0,00.0,38.9,31.5,08.6,0000.0,0002.17,0000.44,0000.29
2021-11-15 23:13:00,,0826.5,5.00,0.00,29.9,28.2,00.0,38.9,31.6,08.6,0000.0,0002.11,0000.44,0000.29
2021-11-15 23:14:00,,0826.5,5.00,0.00,29.9,28.4,00.0,38.9,31.6,08.6,0000.0,0001.89,0000.45,0000.29
2021-11-15 23:15:00,,0826.5,5.00,0.00,29.9,28.5,00.0,38.9,31.6,08.5,0000.0,0001.53,0000.45,0000.29
2021-11-15 23:16:00,,0826.5,5.00,0.00,29.9,28.7,00.0,38.9,31.6,08.1,0000.0,0001.89,0000.45,0000.29
2021-11-15 23:17:00,,0826.5,5.00,0.00,29.9,28.8,00.0,38.9,31.7,08.3,0000.0,0002.24,0000.48,0000.29
2021-11-15 23:18:00,,0826.5,5.00,0.00,29.9,28.9,00.0,38.9,31.7,08.4,0000.0,0002.31,0000.51,0000.29
2021-11-15 23:19:00,,0826.5,5.00,0.00,30.0,28.9,00.0,38.9,31.7,08.5,0000.0,0002.35,0000.53,0000.29
2021-11-15 23:20:00,,0826.5,5.00,0.00,30.0,29.0,00.0,38.9,31.8,08.5,0000.0,0001.95,0000.57,0000.30
2021-11-15 23:21:00,,0826.4,5.01,0.00,30.0,29.0,00.0,38.9,31.8,08.3,0000.0,0001.84,0000.60,0000.31
2021-11-15 23:22:00,,0826.5,5.00,0.00,30.0,29.1,00.0,38.9,31.7,08.3,0000.0,0001.89,0000.61,0000.32
2021-11-15 23:23:00,,0826.4,5.00,0.00,30.0,29.1,00.0,38.9,31.8,08.3,0000.0,0001.90,0000.61,0000.32
2021-11-15 23:24:00,,0826.4,5.01,0.00,30.0,29.2,00.0,39.0,31.8,08.3,0000.0,0001.92,0000.62,0000.32
2021-11-15 23:25:00,,0826.3,5.00,0.00,30.1,29.2,00.0,39.0,31.8,08.2,0000.0,0001.86,0000.59,0000.32
2021-11-15 23:26:00,,0826.4,4.99,0.00,30.1,29.2,00.0,39.0,31.9,08.3,0000.0,0001.88,0000.60,0000.32
2021-11-15 23:27:00,,0826.3,4.99,0.00,30.1,29.3,00.0,39.0,31.9,08.3,0000.0,0001.70,0000.60,0000.32
2021-11-15 23:28:00,,0826.3,5.01,0.00,30.1,29.3,00.0,39.0,31.9,08.2,0000.0,0001.96,0000.59,0000.32
2021-11-15 23:29:00,,0826.3,5.00,0.00,30.1,29.3,00.0,39.0,31.9,08.2,0000.0,0001.92,0000.57,0000.32
2021-11-15 23:30:00,,0826.3,4.99,0.00,30.1,29.4,00.0,39.0,31.9,08.2,0000.0,0001.90,0000.56,0000.32
2021-11-15 23:31:00,,0826.4,5.01,0.00,30.1,29.4,00.0,39.1,31.9,08.2,0000.0,0001.76,0000.54,0000.31
2021-11-15 23:32:00,,0826.4,4.99,0.00,30.1,29.4,00.0,39.1,31.9,08.2,0000.0,0001.82,0000.53,0000.31
2021-11-15 23:33:00,,0826.4,5.02,0.00,30.2,29.4,00.0,39.1,31.9,08.2,0000.0,0001.74,0000.49,0000.29
2021-11-15 23:34:00,,0826.4,5.00,0.00,30.2,29.4,00.0,39.1,32.0,08.2,0000.0,0001.95,0000.51,0000.30
2021-11-15 23:35:00,,0826.3,5.00,0.00,30.2,29.4,00.0,39.1,32.0,08.2,0000.0,0001.93,0000.50,0000.30
2021-11-15 23:36:00,,0826.3,5.00,0.00,30.2,29.3,00.0,39.1,31.9,08.2,0000.0,0001.95,0000.51,0000.29
2021-11-15 23:37:00,,0826.2,4.98,0.00,30.2,27.5,00.0,39.1,31.6,08.2,0000.0,0001.92,0000.50,0000.29
2021-11-15 23:38:00,,0826.2,5.01,0.00,30.0,26.4,00.0,39.1,31.4,08.2,0000.0,0001.93,0000.51,0000.29
2021-11-15 23:39:00,,0826.2,5.01,0.00,30.0,26.6,00.0,39.0,31.4,08.2,0000.0,0001.26,0000.49,0000.29
2021-11-15 23:40:00,,0826.2,4.99,0.00,29.9,27.0,00.0,39.0,31.3,08.2,0000.0,0001.09,0000.48,0000.29
2021-11-15 23:41:00,,0826.2,5.01,0.00,29.8,27.4,00.0,38.9,31.3,08.1,0000.0,0001.08,0000.47,0000.28
2021-11-15 23:42:00,,0826.2,4.99,0.00,29.8,27.7,00.0,38.9,31.4,08.2,0000.0,0001.00,0000.44,0000.29
2021-11-15 23:43:00,,0826.2,5.00,0.00,29.8,28.0,00.0,38.9,31.5,08.2,0000.0,0001.19,0000.44,0000.29
2021-11-15 23:44:00,,0826.2,5.00,0.00,29.8,28.2,00.0,38.9,31.5,08.2,0000.0,0001.79,0000.44,0000.29
2021-11-15 23:45:00,,0826.2,5.00,0.00,29.8,28.4,00.0,38.9,31.5,08.3,0000.0,0001.57,0000.42,0000.29
2021-11-15 23:46:00,,0826.2,5.00,0.00,29.8,28.5,00.0,38.9,31.5,08.3,0000.0,0001.54,0000.41,0000.29
2021-11-15 23:47:00,,0826.2,4.99,0.00,29.9,28.6,00.0,38.9,31.6,08.2,0000.0,0001.54,0000.41,0000.29
2021-11-15 23:48:00,,0826.2,5.01,0.00,29.9,28.7,00.0,38.9,31.6,08.2,0000.0,0001.57,0000.42,0000.29
2021-11-15 23:49:00,,0826.2,4.99,0.00,29.9,28.8,00.0,38.9,31.6,08.3,0000.0,0001.63,0000.42,0000.28
2021-11-15 23:50:00,,0826.2,5.00,0.00,29.9,28.8,00.0,38.9,31.6,08.3,0000.0,0002.41,0000.44,0000.28
2021-11-15 23:51:00,,0826.3,5.00,0.00,29.9,28.9,00.0,38.9,31.7,08.3,0000.0,0003.00,0000.46,0000.29
2021-11-15 23:52:00,,0826.3,5.00,0.00,29.9,28.9,00.0,38.9,31.7,08.3,0000.0,0003.78,0000.47,0000.29
2021-11-15 23:53:00,,0826.3,5.00,0.00,30.0,28.9,00.0,38.9,31.7,08.3,0000.0,0004.06,0000.53,0000.29
2021-11-15 23:54:00,,0826.3,5.00,0.00,30.0,29.0,00.0,38.9,31.7,08.3,0000.0,0003.79,0000.54,0000.30
2021-11-15 23:55:00,,0826.3,4.98,0.00,30.0,29.0,00.0,38.9,31.7,08.3,0000.0,0003.20,0000.53,0000.30
2021-11-15 23:56:00,,0826.3,5.01,0.00,30.0,29.0,00.0,38.9,31.8,08.3,0000.0,0003.17,0000.52,0000.29
2021-11-15 23:57:00,,0826.3,4.98,0.00,30.0,29.1,00.0,38.9,31.7,08.3,0000.0,0003.13,0000.51,0000.29
2021-11-15 23:58:00,,0826.3,5.01,0.00,30.0,29.1,00.0,38.9,31.7,08.4,0000.0,0003.12,0000.51,0000.29
2021-11-15 23:59:00,,0826.4,4.99,0.00,30.0,29.1,00.0,39.0,31.8,08.4,0000.0,0003.10,0000.50,0000.29
